GW0115 Weather Reports


time (UTC)temp
C
wind
direction
speed
KPH
gust
KPH
rain 1hr
cm
rain 24hr
cm
rain mn
cm
humidity
%
barometer
mb
20260901154559 17 0 0.0 0.0 0.03 0.89 0.89 96 1016.6
20260901153056 17 0 0.0 4.8 0.03 0.89 0.89 96 1016.5
20260901151558 17 0 0.0 0.0 0.08 0.89 0.89 96 1016.3
20260901150059 17 0 0.0 4.8 0.08 0.89 0.89 96 1016.0
20260901144556 17 0 0.0 0.0 0.05 0.86 0.86 96 1016.0
20260901143105 17 0 0.0 0.0 0.05 0.84 0.84 96 1016.2
20260901141614 18 0 0.0 0.0 0.03 0.81 0.81 96 1016.2
20260901140105 18 0 0.0 0.0 0.05 0.81 0.81 97 1016.2
20260901134605 17 0 0.0 0.0 0.05 0.81 0.81 96 1015.9
20260901133125 17 0 0.0 0.0 0.05 0.79 0.79 96 1016.1
20260901131604 17 0 0.0 0.0 0.05 0.79 0.79 96 1016.1
20260901130118 17 0 0.0 0.0 0.03 0.76 0.76 96 1016.4
20260901124602 17 0 0.0 0.0 0.05 0.76 0.76 96 1016.7
20260901123101 17 0 0.0 0.0 0.05 0.74 0.74 96 1016.9
20260901121604 17 0 0.0 0.0 0.15 0.74 0.74 95 1016.8
20260901120107 17 0 0.0 0.0 0.20 0.74 0.74 95 1016.9
20260901114603 17 0 0.0 0.0 0.28 0.71 0.71 95 1016.7
20260901113102 17 0 0.0 0.0 0.33 0.69 0.69 95 1016.8
20260901111559 17 0 0.0 0.0 0.25 0.58 0.58 95 1016.8
20260901110055 17 0 0.0 0.0 0.23 0.53 0.53 95 1016.6
20260901104602 17 0 0.0 0.0 0.23 0.43 0.43 94 1016.7
20260901103100 17 0 0.0 0.0 0.30 0.36 0.36 94 1016.2
20260901101606 18 0 0.0 0.0 0.33 0.33 0.33 93 1016.0
20260901100105 18 0 0.0 0.0 0.30 0.30 0.30 93 1016.1
20260901094600 18 0 0.0 0.0 0.20 0.20 0.20 92 1016.4
20260901093058 18 0 0.0 0.0 0.05 0.05 0.05 90 1016.5
20260901091556 18 0 0.0 0.0 0.00 0.00 0.00 89 1016.3
20260901090101 18 0 0.0 0.0 0.00 0.00 0.00 89 1016.3
20260901084622 18 0 0.0 0.0 0.00 0.00 0.00 87 1016.2
20260901083058 18 0 0.0 0.0 0.00 0.00 0.00 88 1016.3
20260901081556 18 0 0.0 0.0 0.00 0.00 0.00 88 1016.4
20260901080115 18 0 0.0 0.0 0.00 0.00 0.00 88 1016.4
20260901074623 18 0 0.0 0.0 0.00 0.00 0.00 89 1016.6
20260901073056 18 0 0.0 0.0 0.00 0.00 0.00 89 1016.7
20260901071607 18 0 0.0 0.0 0.00 0.00 0.00 88 1016.6
20260901070052 18 0 0.0 0.0 0.00 0.00 0.00 88 1016.4
20260901064559 18 0 0.0 0.0 0.00 0.00 0.00 88 1016.5
20260901063108 18 0 0.0 0.0 0.00 0.00 0.00 88 1016.6
20260901061603 18 0 0.0 0.0 0.00 0.00 0.00 88 1016.8
20260901054602 19 0 0.0 0.0 0.00 0.00 0.00 87 1017.0
20260901053107 19 0 0.0 0.0 0.00 0.00 0.00 87 1017.2
20260901051614 19 0 0.0 0.0 0.00 0.00 0.00 87 1017.2
20260901050108 19 0 0.0 0.0 0.00 0.00 0.00 87 1017.3
20260901044605 19 0 0.0 0.0 0.00 0.00 0.00 87 1017.6
20260901043109 19 0 0.0 0.0 0.00 0.00 0.00 87 1017.6
20260901041622 19 0 0.0 0.0 0.00 0.00 0.00 87 1017.5
20260901040136 19 0 0.0 0.0 0.00 0.00 0.00 87 1017.4
20260901034558 19 0 0.0 0.0 0.00 0.00 0.00 86 1017.2
20260901033057 19 0 0.0 0.0 0.00 0.00 0.00 86 1017.3
20260901031601 20 0 0.0 0.0 0.00 0.00 0.00 85 1017.2
20260901030107 20 0 0.0 0.0 0.00 0.00 0.00 85 1017.4
20260901024557 20 0 0.0 0.0 0.00 0.00 0.00 84 1017.5
20260901023106 20 0 0.0 0.0 0.00 0.00 0.00 83 1017.7
20260901021603 20 0 0.0 0.0 0.00 0.00 0.00 82 1017.6
20260901020100 20 0 0.0 6.4 0.00 0.00 0.00 81 1017.6
20260901014609 20 0 0.0 0.0 0.00 0.00 0.00 81 1017.4
20260901013105 21 0 0.0 0.0 0.00 0.00 0.00 80 1017.2
20260901011556 21 0 0.0 0.0 0.00 0.00 0.00 80 1017.3
20260901010116 21 0 0.0 1.6 0.00 0.00 0.00 79 1017.4
20260901004600 21 0 0.0 4.8 0.00 0.00 0.00 80 1017.4
20260901003105 21 0 0.0 4.8 0.00 0.00 0.00 81 1017.4
20260901001557 21 0 0.0 0.0 0.00 0.00 0.00 80 1017.2
20260901000056 21 0 0.0 0.0 0.00 0.00 0.00 77 1017.3
20260831234602 21 0 0.0 0.0 0.00 0.00 0.00 77 1017.2
20260831233109 22 0 0.0 0.0 0.00 0.00 0.00 75 1017.3
20260831231558 22 0 0.0 0.0 0.00 0.00 0.00 75 1017.4
20260831230114 22 0 0.0 0.0 0.00 0.00 0.00 74 1017.4
20260831224556 22 0 0.0 0.0 0.00 0.00 0.00 70 1017.6
20260831223111 22 0 0.0 0.0 0.00 0.00 0.00 73 1017.6
20260831221603 22 0 0.0 0.0 0.00 0.00 0.00 73 1017.7
20260831220101 23 0 0.0 0.0 0.00 0.00 0.00 73 1017.8
20260831214607 23 0 0.0 0.0 0.00 0.00 0.00 72 1017.7
20260831213052 23 0 0.0 3.2 0.00 0.00 0.00 68 1017.6
20260831211601 23 0 0.0 1.6 0.00 0.00 0.00 69 1017.6
20260831210056 23 0 0.0 0.0 0.00 0.00 0.00 71 1017.7
20260831204558 23 0 0.0 0.0 0.00 0.00 0.00 70 1017.7
20260831203114 23 0 0.0 0.0 0.00 0.00 0.00 70 1017.8
20260831201557 24 0 0.0 0.0 0.00 0.00 0.00 69 1017.9
20260831200106 24 0 0.0 0.0 0.00 0.00 0.00 67 1018.0
20260831194637 24 0 0.0 0.0 0.00 0.00 0.00 69 1018.1
20260831193101 24 0 0.0 0.0 0.00 0.00 0.00 67 1018.3
20260831191556 23 0 0.0 0.0 0.00 0.00 0.00 65 1018.5
20260831184600 24 0 0.0 0.0 0.00 0.00 0.00 65 1018.7
20260831183106 25 0 0.0 0.0 0.00 0.00 0.00 66 1018.8
20260831181557 25 0 0.0 0.0 0.00 0.00 0.00 67 1019.0
20260831180111 24 0 0.0 0.0 0.00 0.00 0.00 68 1019.3
20260831174558 23 0 0.0 0.0 0.00 0.00 0.00 70 1019.5
20260831173058 23 0 0.0 0.0 0.00 0.00 0.00 69 1019.5
20260831171555 23 0 0.0 0.0 0.00 0.00 0.00 68 1019.8
20260831170059 24 0 0.0 0.0 0.00 0.00 0.00 70 1019.9
20260831164600 24 0 0.0 0.0 0.00 0.00 0.00 72 1019.8
20260831163102 23 0 0.0 0.0 0.00 0.00 0.00 75 1019.9
20260831161554 23 0 0.0 0.0 0.00 0.00 0.00 70 1020.2
20260831160059 22 0 0.0 0.0 0.00 0.00 0.00 70 1020.4